KD9JOU-13 Weather Reports


time (UTC)temp
C
wind
direction
speed
KPH
gust
KPH
rain 1hr
cm
rain 24hr
cm
rain mn
cm
humidity
%
barometer
mb
20260504081832 16 227 3.2 3.2 0.00 0.00 0.00 61 1010.4
20260504081331 16 236 1.6 4.8 0.00 0.00 0.00 60 1010.4
20260504080831 16 246 1.6 3.2 0.00 0.00 0.00 60 1010.4
20260504080332 16 244 1.6 4.8 0.00 0.00 0.00 60 1010.4
20260504070332 16 230 3.2 6.4 0.00 0.00 0.00 56 1010.5
20260504050331 17 217 4.8 6.4 0.00 0.00 0.00 50 1011.5
20260504045831 17 206 6.4 6.4 0.00 0.00 0.00 50 1011.5
20260504045331 17 212 3.2 4.8 0.00 0.00 0.00 50 1011.5
20260504044831 17 218 3.2 4.8 0.00 0.00 0.00 49 1011.5
20260504044332 17 200 3.2 6.4 0.00 0.00 0.00 49 1011.5
20260504043831 17 205 4.8 6.4 0.00 0.00 0.00 49 1011.7
20260504043331 17 215 3.2 4.8 0.00 0.00 0.00 48 1011.7
20260504042831 17 214 3.2 4.8 0.00 0.00 0.00 48 1011.7
20260504042332 17 213 1.6 3.2 0.00 0.00 0.00 48 1011.7
20260504041832 17 210 3.2 6.4 0.00 0.00 0.00 48 1011.7
20260504041332 17 204 3.2 3.2 0.00 0.00 0.00 48 1011.7
20260504040832 17 215 3.2 4.8 0.00 0.00 0.00 48 1011.8
20260504040331 17 211 1.6 3.2 0.00 0.00 0.00 48 1011.8
20260504035831 17 210 3.2 4.8 0.00 0.00 0.00 48 1011.9
20260504035331 16 204 1.6 3.2 0.00 0.00 0.00 48 1012.0
20260504034831 16 226 0.0 3.2 0.00 0.00 0.00 48 1012.0
20260504034331 16 221 0.0 1.6 0.00 0.00 0.00 48 1012.1
20260504033831 16 188 1.6 4.8 0.00 0.00 0.00 48 1012.2
20260504033331 16 221 1.6 4.8 0.00 0.00 0.00 48 1012.2
20260504032831 16 236 1.6 3.2 0.00 0.00 0.00 48 1012.2
20260504032332 16 221 0.0 3.2 0.00 0.00 0.00 48 1012.3
20260504031831 16 221 1.6 3.2 0.00 0.00 0.00 48 1012.3
20260504031331 16 230 0.0 3.2 0.00 0.00 0.00 48 1012.4
20260504030831 16 221 1.6 3.2 0.00 0.00 0.00 48 1012.4
20260504030331 16 216 1.6 3.2 0.00 0.00 0.00 49 1012.4
20260504025832 16 243 0.0 1.6 0.00 0.00 0.00 49 1012.4
20260504025332 16 237 1.6 4.8 0.00 0.00 0.00 49 1012.4
20260504024832 16 0 0.0 0.0 0.00 0.00 0.00 50 1012.5
20260504024332 16 237 0.0 3.2 0.00 0.00 0.00 50 1012.5
20260504023831 16 0 0.0 0.0 0.00 0.00 0.00 50 1012.5
20260504023331 16 0 0.0 0.0 0.00 0.00 0.00 50 1012.6
20260504022831 16 0 0.0 0.0 0.00 0.00 0.00 50 1012.6
20260504022337 16 0 0.0 0.0 0.00 0.00 0.00 50 1012.6
20260504021831 16 0 0.0 0.0 0.00 0.00 0.00 49 1012.5
20260504021331 16 225 0.0 1.6 0.00 0.00 0.00 49 1012.5
20260504020832 16 0 0.0 0.0 0.00 0.00 0.00 49 1012.5
20260504020331 16 0 0.0 0.0 0.00 0.00 0.00 51 1012.5
20260504015831 16 0 0.0 0.0 0.00 0.00 0.00 50 1012.5
20260504015331 16 78 1.6 3.2 0.00 0.00 0.00 49 1012.6
20260504014831 16 0 0.0 0.0 0.00 0.00 0.00 49 1012.6
20260504014331 17 0 0.0 0.0 0.00 0.00 0.00 48 1012.6
20260504013831 17 0 0.0 0.0 0.00 0.00 0.00 46 1012.5
20260504013331 17 0 0.0 0.0 0.00 0.00 0.00 48 1012.6
20260504012831 18 0 0.0 0.0 0.00 0.00 0.00 44 1012.6
20260504012331 18 0 0.0 0.0 0.00 0.00 0.00 43 1012.6
20260504011831 18 0 0.0 0.0 0.00 0.00 0.00 42 1012.6
20260504011331 18 0 0.0 0.0 0.00 0.00 0.00 42 1012.6
20260504010831 18 0 0.0 0.0 0.00 0.00 0.00 41 1012.6
20260504010332 18 223 0.0 1.6 0.00 0.00 0.00 41 1012.5
20260504005831 18 200 0.0 1.6 0.00 0.00 0.00 40 1012.5
20260504005331 18 198 0.0 3.2 0.00 0.00 0.00 41 1012.4
20260504004831 19 210 0.0 1.6 0.00 0.00 0.00 40 1012.2
20260504004331 19 240 0.0 3.2 0.00 0.00 0.00 40 1012.2
20260504003831 19 231 0.0 3.2 0.00 0.00 0.00 39 1012.1
20260504003331 19 0 0.0 0.0 0.00 0.00 0.00 39 1012.0
20260504002831 19 0 0.0 0.0 0.00 0.00 0.00 39 1012.0
20260504002331 20 0 0.0 0.0 0.00 0.00 0.00 39 1012.0
20260504001831 20 0 0.0 0.0 0.00 0.00 0.00 39 1012.0
20260504001331 20 235 0.0 3.2 0.00 0.00 0.00 38 1012.0
20260504000831 20 239 0.0 3.2 0.00 0.00 0.00 38 1012.1
20260504000332 20 243 1.6 4.8 0.00 0.00 0.00 37 1012.1
20260503235831 20 228 3.2 4.8 0.00 0.00 0.00 37 1011.9
20260503235331 20 229 1.6 4.8 0.00 0.00 0.00 37 1011.9
20260503234832 20 227 0.0 3.2 0.00 0.00 0.00 36 1011.9
20260503234331 20 237 1.6 4.8 0.00 0.00 0.00 36 1011.8
20260503233831 20 220 3.2 4.8 0.00 0.00 0.00 35 1011.8
20260503233332 20 219 3.2 4.8 0.00 0.00 0.00 35 1011.7
20260503232831 21 221 4.8 8.0 0.00 0.00 0.00 34 1011.9
20260503232332 21 216 1.6 4.8 0.00 0.00 0.00 35 1012.0
20260503231831 21 219 3.2 6.4 0.00 0.00 0.00 34 1012.0
20260503231332 21 223 3.2 4.8 0.00 0.00 0.00 35 1012.1
20260503230831 21 237 3.2 8.0 0.00 0.00 0.00 35 1012.2
20260503230331 21 206 3.2 6.4 0.00 0.00 0.00 36 1012.3
20260503225831 21 229 1.6 3.2 0.00 0.00 0.00 35 1012.4
20260503225331 21 206 3.2 6.4 0.00 0.00 0.00 35 1012.5
20260503224832 21 225 1.6 4.8 0.00 0.00 0.00 35 1012.5
20260503224331 21 231 3.2 6.4 0.00 0.00 0.00 34 1012.6
20260503223831 21 213 3.2 6.4 0.00 0.00 0.00 34 1012.5
20260503223331 21 217 3.2 6.4 0.00 0.00 0.00 34 1012.5
20260503222831 21 214 3.2 4.8 0.00 0.00 0.00 35 1012.5
20260503222331 21 209 3.2 6.4 0.00 0.00 0.00 34 1012.8
20260503221831 21 206 1.6 4.8 0.00 0.00 0.00 34 1013.0
20260503221331 21 224 3.2 6.4 0.00 0.00 0.00 35 1013.0
20260503220831 21 222 1.6 4.8 0.00 0.00 0.00 36 1012.9
20260503220331 20 218 3.2 6.4 0.00 0.00 0.00 34 1013.0
20260503215831 20 178 1.6 8.0 0.00 0.00 0.00 35 1013.0
20260503215331 20 216 3.2 4.8 0.00 0.00 0.00 35 1013.2
20260503214831 20 225 0.0 3.2 0.00 0.00 0.00 35 1013.4
20260503214331 20 223 4.8 8.0 0.00 0.00 0.00 34 1013.5
20260503213831 20 223 3.2 6.4 0.00 0.00 0.00 36 1013.6
20260503213331 20 227 3.2 6.4 0.00 0.00 0.00 36 1013.8
20260503212831 20 221 4.8 6.4 0.00 0.00 0.00 38 1013.9
20260503212331 20 252 0.0 3.2 0.00 0.00 0.00 38 1013.9
20260503211832 20 230 3.2 4.8 0.00 0.00 0.00 37 1014.0
20260503211331 20 237 3.2 6.4 0.00 0.00 0.00 37 1014.1
20260503210831 20 206 1.6 4.8 0.00 0.00 0.00 38 1014.2
20260503210331 20 225 3.2 4.8 0.00 0.00 0.00 37 1014.3
20260503205831 20 230 3.2 6.4 0.00 0.00 0.00 38 1014.6
20260503205331 20 230 3.2 4.8 0.00 0.00 0.00 38 1014.8
20260503204831 20 221 1.6 4.8 0.00 0.00 0.00 39 1014.9
20260503204331 20 214 3.2 4.8 0.00 0.00 0.00 40 1015.0
20260503203831 20 207 3.2 4.8 0.00 0.00 0.00 40 1015.2
20260503203331 20 207 1.6 4.8 0.00 0.00 0.00 40 1015.3
20260503202831 20 212 1.6 4.8 0.00 0.00 0.00 41 1015.5
20260503202331 19 235 1.6 6.4 0.00 0.00 0.00 41 1015.7
20260503201831 19 245 3.2 6.4 0.00 0.00 0.00 40 1015.9
20260503201331 19 228 3.2 4.8 0.00 0.00 0.00 40 1016.0
20260503200831 19 242 4.8 6.4 0.00 0.00 0.00 41 1015.9
20260503200332 19 220 3.2 4.8 0.00 0.00 0.00 39 1016.0
20260503195831 19 222 3.2 4.8 0.00 0.00 0.00 41 1016.1
20260503195332 19 252 0.0 4.8 0.00 0.00 0.00 41 1016.3
20260503194831 19 236 3.2 4.8 0.00 0.00 0.00 40 1016.4
20260503194331 19 245 3.2 6.4 0.00 0.00 0.00 41 1016.5
20260503193831 19 222 3.2 6.4 0.00 0.00 0.00 40 1016.8
20260503193331 18 257 6.4 8.0 0.00 0.00 0.00 41 1016.8
20260503192831 18 243 3.2 6.4 0.00 0.00 0.00 42 1016.8
20260503192331 18 225 1.6 6.4 0.00 0.00 0.00 41 1016.9
20260503191831 18 215 4.8 6.4 0.00 0.00 0.00 41 1016.9
20260503191331 18 236 3.2 6.4 0.00 0.00 0.00 43 1017.1
20260503190832 18 216 4.8 8.0 0.00 0.00 0.00 43 1017.3
20260503190333 18 213 6.4 8.0 0.00 0.00 0.00 42 1017.4
20260503185831 18 239 3.2 6.4 0.00 0.00 0.00 45 1017.5
20260503185331 18 212 3.2 6.4 0.00 0.00 0.00 42 1017.6
20260503184831 18 221 4.8 6.4 0.00 0.00 0.00 43 1017.5
20260503184331 18 221 4.8 6.4 0.00 0.00 0.00 43 1017.7
20260503183831 18 206 4.8 6.4 0.00 0.00 0.00 43 1017.8
20260503183332 18 205 3.2 4.8 0.00 0.00 0.00 43 1017.9
20260503182831 18 227 3.2 4.8 0.00 0.00 0.00 44 1017.9
20260503182331 18 209 3.2 6.4 0.00 0.00 0.00 44 1017.9
20260503181832 18 219 3.2 6.4 0.00 0.00 0.00 44 1018.1
20260503181332 17 198 3.2 6.4 0.00 0.00 0.00 45 1018.1
20260503180831 17 202 1.6 3.2 0.00 0.00 0.00 44 1018.3
20260503180331 17 204 4.8 6.4 0.00 0.00 0.00 44 1018.4
20260503175832 17 223 0.0 3.2 0.00 0.00 0.00 46 1018.6
20260503175334 17 209 3.2 4.8 0.00 0.00 0.00 45 1018.7
20260503174831 17 187 3.2 4.8 0.00 0.00 0.00 45 1019.0
20260503174331 17 204 3.2 6.4 0.00 0.00 0.00 47 1019.1
20260503173831 17 206 4.8 6.4 0.00 0.00 0.00 46 1019.1
20260503173331 17 209 6.4 8.0 0.00 0.00 0.00 46 1019.2
20260503172831 17 194 1.6 4.8 0.00 0.00 0.00 48 1019.2
20260503172331 17 222 3.2 4.8 0.00 0.00 0.00 48 1019.4
20260503171831 17 204 3.2 6.4 0.00 0.00 0.00 47 1019.3
20260503171332 17 217 3.2 6.4 0.00 0.00 0.00 47 1019.4
20260503170831 17 219 0.0 3.2 0.00 0.00 0.00 48 1019.4
20260503170331 17 185 4.8 6.4 0.00 0.00 0.00 45 1019.5
20260503150831 14 228 3.2 4.8 0.00 0.00 0.00 50 1020.6
20260503150331 14 239 3.2 4.8 0.00 0.00 0.00 50 1020.7
20260503131331 8 0 0.0 0.0 0.00 0.00 0.00 90 1021.1
20260503130831 8 225 0.0 3.2 0.00 0.00 0.00 90 1021.0
20260503130331 8 0 0.0 0.0 0.00 0.00 0.00 92 1021.1
20260503110331 3 0 0.0 0.0 0.00 0.00 0.00 95 1020.6